Location: Club d'Astronomie Sirius du Saguenay
(48.5448°N, 71.1471°W)
Time: 10:42:02
(UTC-05:00)

OTV 5 (USA 277) - Visible Passes

Search period start: 18 January 2018 00:00
Search period end: 28 January 2018 00:00
Orbit: 404 x 417 km, 43.0° (Epoch: 07 September)

Date Brightness Start Highest point End Pass type
(mag) Time Alt. Az. Time Alt. Az. Time Alt. Az.
24 Jan ? 18:38:58 10° SSW 18:40:43 18° S 18:40:43 18° S visible
25 Jan ? 17:48:27 10° SSW 17:50:38 16° SSE 17:52:08 13° SE visible
25 Jan ? 19:24:23 10° WSW 19:24:54 13° SW 19:24:54 13° SW visible
26 Jan ? 18:33:30 10° SW 18:36:18 27° S 18:36:18 27° S visible
27 Jan ? 17:42:41 10° SW 17:45:29 24° SSE 17:47:40 13° ESE visible
27 Jan ? 19:19:18 10° WSW 19:20:26 18° SW 19:20:26 18° SW visible
